User: anonymous   Login
Location: Lima
(44.6384°N, 112.5920°W)
Time: 21:40:05
(UTC+00:00)
Language:

STARS - Orbit

View from above orbital plane
View from above orbital plane
View from above satellite
View from above satellite

Ground track
Ground track

The orbit data is extracted from the following two-line orbital elements,

1 33498U 09002G   24114.73517158  .00007929  00000-0  93820-3 0  9999
2 33498  98.1225  27.9074 0008949 216.4134 143.6472 14.84855918821591
Epoch (UTC): 23 April 2024 17:38:38
Eccentricity: 0.0008949
inclination: 98.1225°
perigee height: 608 km
apogee height: 620 km
right ascension of ascending node: 27.9074°
argument of perigee: 216.4134°
revolutions per day: 14.84855918
mean anomaly at epoch: 143.6472°
orbit number at epoch: 82159

The dashed part of the orbit path shows where the satellite is in the earth's shadow,  

DLR